STARLINK-1714 (46562 NORAD) Tracking and Keplerian Element Data

This shows tracking and keplerian element data for the satellite.

Feedback or suggestion? Click here.




ElementValue
Catalog46562
NameSTARLINK-1714
Epoch Orbit845
Epoch Day331.16668981
Epoch Year2020
RAAN193.381
Inclination53
Eccentricity0.0001807
Argument of Perigee36.9544
Mean Anonmoly42.0258
Mean Motion15.62785942
Decay Rate0.00041406
L11 46562U 20070AG 20331.16668981 .00041406 00000-0 45513-3 0 9992
L22 46562 53.0000 193.3810 0001807 36.9544 42.0258 15.62785942 8452

Live tracking and technical data element details for STARLINK-1714 (NORAD 46562). STARLINK-1714 can be tracked NOW for your location showing map with azimuth and elevation plus other details from your city location.

Track the satellite on the map from your city or location and see movement details for azimuth, elevation, latitude, longitude, range, height, and movement on the map or in text.







IsCatalogInMostPopularTable: catalog: 46562, numindb: 14
Update: records affected: 1



GetName: 46562 STARLINK-1714

Hit Count: updated at: Thu, 26 Nov 2020 23:26:24 GMT